Time,TemperatureF,DewpointF,PressureIn,WindDirection,WindDirectionDegrees,WindSpeedMPH,WindSpeedGustMPH,Humidity,HourlyPrecipIn,Conditions,Clouds,dailyrainin,SoftwareType,DateUTC
2013-12-08 00:00:00,-12.1,-22.7,30.52,SW,230,4.0,4.5,58,0.00,,---,0.00,VWS V13.01,2013-12-08 06:00:00,
2013-12-08 00:05:00,-12.1,-22.7,30.52,SW,236,4.0,4.0,58,0.00,,---,0.00,VWS V13.01,2013-12-08 06:05:00,
2013-12-08 00:10:00,-12.1,-22.7,30.52,West,278,3.6,4.0,58,0.00,,---,0.00,VWS V13.01,2013-12-08 06:10:00,
2013-12-08 00:15:00,-11.9,-22.5,30.49,West,264,6.5,6.5,58,0.00,,---,0.00,VWS V13.01,2013-12-08 06:15:00,
2013-12-08 00:20:00,-11.7,-22.4,30.49,West,268,6.9,6.9,58,0.00,,---,0.00,VWS V13.01,2013-12-08 06:20:00,
2013-12-08 00:25:00,-11.6,-22.2,30.49,West,266,5.1,5.6,58,0.00,,---,0.00,VWS V13.01,2013-12-08 06:25:00,
2013-12-08 00:30:00,-11.4,-22.0,30.49,WSW,249,4.0,4.0,58,0.00,,---,0.00,VWS V13.01,2013-12-08 06:30:00,
2013-12-08 00:36:00,-11.4,-22.0,30.49,SW,231,4.5,6.0,58,0.00,,---,0.00,VWS V13.01,2013-12-08 06:36:00,
2013-12-08 00:41:00,-11.4,-22.0,30.49,West,275,4.5,4.7,58,0.00,,---,0.00,VWS V13.01,2013-12-08 06:41:00,
2013-12-08 00:46:00,-11.4,-22.0,30.49,SW,231,4.7,4.7,58,0.00,,---,0.00,VWS V13.01,2013-12-08 06:46:00,
2013-12-08 00:51:00,-11.6,-22.2,30.49,SW,226,5.6,5.6,58,0.00,,---,0.00,VWS V13.01,2013-12-08 06:51:00,
2013-12-08 00:56:00,-11.6,-22.2,30.49,SSW,212,4.5,5.1,58,0.00,,---,0.00,VWS V13.01,2013-12-08 06:56:00,
2013-12-08 01:01:00,-11.7,-22.4,30.49,SSW,212,4.5,5.6,58,0.00,,---,0.00,VWS V13.01,2013-12-08 07:01:00,
2013-12-08 01:06:00,-11.9,-22.5,30.49,SW,214,4.0,4.0,58,0.00,,---,0.00,VWS V13.01,2013-12-08 07:06:00,
2013-12-08 01:11:00,-11.9,-22.5,30.49,SW,222,5.6,5.6,58,0.00,,---,0.00,VWS V13.01,2013-12-08 07:11:00,
2013-12-08 01:16:00,-11.9,-22.5,30.49,WSW,243,4.0,4.0,58,0.00,,---,0.00,VWS V13.01,2013-12-08 07:16:00,
2013-12-08 01:21:00,-11.9,-22.5,30.49,West,260,4.7,5.6,58,0.00,,---,0.00,VWS V13.01,2013-12-08 07:21:00,
2013-12-08 01:26:00,-11.7,-22.4,30.49,WNW,293,4.0,5.1,58,0.00,,---,0.00,VWS V13.01,2013-12-08 07:26:00,
2013-12-08 01:31:00,-11.7,-22.4,30.46,WNW,284,5.1,5.1,58,0.00,,---,0.00,VWS V13.01,2013-12-08 07:31:00,
2013-12-08 01:36:00,-11.4,-22.0,30.46,West,266,4.7,6.0,58,0.00,,---,0.00,VWS V13.01,2013-12-08 07:36:00,
2013-12-08 01:42:00,-11.0,-21.7,30.46,WSW,246,4.7,4.7,58,0.00,,---,0.00,VWS V13.01,2013-12-08 07:42:00,
2013-12-08 01:47:00,-10.8,-21.5,30.46,WSW,249,4.7,4.7,58,0.00,,---,0.00,VWS V13.01,2013-12-08 07:47:00,
2013-12-08 01:52:00,-10.8,-21.5,30.46,West,261,3.6,4.5,58,0.00,,---,0.00,VWS V13.01,2013-12-08 07:52:00,
2013-12-08 01:57:00,-10.8,-21.5,30.46,West,265,3.6,4.0,58,0.00,,---,0.00,VWS V13.01,2013-12-08 07:57:00,
2013-12-08 02:02:00,-10.8,-21.5,30.46,West,261,3.1,4.7,58,0.00,,---,0.00,VWS V13.01,2013-12-08 08:02:00,
2013-12-08 02:07:00,-10.8,-21.5,30.46,WSW,245,4.5,4.5,58,0.00,,---,0.00,VWS V13.01,2013-12-08 08:07:00,
2013-12-08 02:12:00,-10.8,-21.5,30.46,WSW,246,3.6,4.7,58,0.00,,---,0.00,VWS V13.01,2013-12-08 08:12:00,
2013-12-08 02:17:00,-10.8,-21.5,30.46,SW,221,5.6,5.6,58,0.00,,---,0.00,VWS V13.01,2013-12-08 08:17:00,
2013-12-08 02:22:00,-11.2,-21.9,30.46,SSW,212,4.5,4.5,58,0.00,,---,0.00,VWS V13.01,2013-12-08 08:22:00,
2013-12-08 02:27:00,-11.4,-22.0,30.46,South,185,4.7,4.7,58,0.00,,---,0.00,VWS V13.01,2013-12-08 08:27:00,
2013-12-08 02:32:00,-11.9,-22.5,30.46,South,189,4.7,4.7,58,0.00,,---,0.00,VWS V13.01,2013-12-08 08:32:00,
2013-12-08 02:37:00,-12.3,-22.9,30.46,SSW,194,3.6,4.7,58,0.00,,---,0.00,VWS V13.01,2013-12-08 08:37:00,
2013-12-08 02:42:00,-12.5,-23.0,30.46,SSW,210,4.0,4.0,58,0.00,,---,0.00,VWS V13.01,2013-12-08 08:42:00,
2013-12-08 02:47:00,-12.6,-23.2,30.46,SSW,195,4.7,4.7,58,0.00,,---,0.00,VWS V13.01,2013-12-08 08:47:00,
2013-12-08 02:52:00,-12.6,-23.2,30.46,SSW,201,3.6,3.6,58,0.00,,---,0.00,VWS V13.01,2013-12-08 08:52:00,
2013-12-08 02:57:00,-12.6,-23.2,30.46,SW,231,3.6,3.6,58,0.00,,---,0.00,VWS V13.01,2013-12-08 08:57:00,
2013-12-08 03:03:00,-12.6,-23.2,30.46,SW,229,3.6,4.0,58,0.00,,---,0.00,VWS V13.01,2013-12-08 09:03:00,
2013-12-08 03:08:00,-12.6,-23.2,30.46,SW,234,4.0,4.5,58,0.00,,---,0.00,VWS V13.01,2013-12-08 09:08:00,
2013-12-08 03:13:00,-12.5,-23.0,30.46,SW,229,4.0,4.0,58,0.00,,---,0.00,VWS V13.01,2013-12-08 09:13:00,
2013-12-08 03:18:00,-12.5,-23.0,30.46,SW,228,4.7,5.1,58,0.00,,---,0.00,VWS V13.01,2013-12-08 09:18:00,
2013-12-08 03:23:00,-12.3,-22.9,30.46,SW,233,3.1,4.5,58,0.00,,---,0.00,VWS V13.01,2013-12-08 09:23:00,
2013-12-08 03:28:00,-12.1,-22.7,30.46,West,265,4.0,4.0,58,0.00,,---,0.00,VWS V13.01,2013-12-08 09:28:00,
2013-12-08 03:33:00,-12.1,-22.7,30.43,SW,227,3.6,4.5,58,0.00,,---,0.00,VWS V13.01,2013-12-08 09:33:00,
2013-12-08 03:38:00,-12.1,-22.7,30.43,WSW,258,3.6,3.6,58,0.00,,---,0.00,VWS V13.01,2013-12-08 09:38:00,
2013-12-08 03:43:00,-12.1,-22.7,30.43,SSW,212,4.7,5.1,58,0.00,,---,0.00,VWS V13.01,2013-12-08 09:43:00,
2013-12-08 03:48:00,-11.9,-22.5,30.43,SW,233,3.6,5.1,58,0.00,,---,0.00,VWS V13.01,2013-12-08 09:48:00,
2013-12-08 03:53:00,-11.7,-22.4,30.43,SW,230,4.0,5.1,58,0.00,,---,0.00,VWS V13.01,2013-12-08 09:53:00,
2013-12-08 03:58:00,-11.7,-22.4,30.43,SW,229,3.6,5.1,58,0.00,,---,0.00,VWS V13.01,2013-12-08 09:58:00,
2013-12-08 04:03:00,-11.7,-22.4,30.43,WSW,248,3.6,4.0,58,0.00,,---,0.00,VWS V13.01,2013-12-08 10:03:00,
2013-12-08 04:08:00,-11.7,-22.4,30.43,SW,228,4.0,4.0,58,0.00,,---,0.00,VWS V13.01,2013-12-08 10:08:00,
2013-12-08 04:14:00,-11.7,-22.4,30.43,SSW,200,4.0,4.7,58,0.00,,---,0.00,VWS V13.01,2013-12-08 10:14:00,
2013-12-08 04:19:00,-11.7,-22.4,30.43,SSW,202,3.6,3.6,58,0.00,,---,0.00,VWS V13.01,2013-12-08 10:19:00,
2013-12-08 04:24:00,-12.3,-22.9,30.43,SSE,160,3.1,4.0,58,0.00,,---,0.00,VWS V13.01,2013-12-08 10:24:00,
2013-12-08 04:29:00,-12.8,-23.4,30.43,SSE,159,0.0,0.0,58,0.00,,---,0.00,VWS V13.01,2013-12-08 10:29:00,
2013-12-08 04:34:00,-13.4,-23.9,30.43,SSE,160,0.0,0.0,58,0.00,,---,0.00,VWS V13.01,2013-12-08 10:34:00,
2013-12-08 04:39:00,-13.7,-24.2,30.43,SSE,160,0.0,0.0,58,0.00,,---,0.00,VWS V13.01,2013-12-08 10:39:00,
2013-12-08 04:44:00,-13.9,-24.4,30.43,East,85,0.0,0.0,58,0.00,,---,0.00,VWS V13.01,2013-12-08 10:44:00,
2013-12-08 04:49:00,-14.1,-24.6,30.43,NNE,32,3.1,3.6,58,0.00,,---,0.00,VWS V13.01,2013-12-08 10:49:00,
2013-12-08 04:54:00,-13.9,-24.4,30.43,NE,34,0.0,0.0,58,0.00,,---,0.00,VWS V13.01,2013-12-08 10:54:00,
2013-12-08 04:59:00,-13.5,-24.1,30.43,NE,35,0.0,0.0,58,0.00,,---,0.00,VWS V13.01,2013-12-08 10:59:00,
2013-12-08 05:04:00,-13.4,-23.9,30.43,NE,35,0.0,0.0,58,0.00,,---,0.00,VWS V13.01,2013-12-08 11:04:00,
2013-12-08 05:09:00,-12.8,-23.4,30.43,NE,34,0.0,0.0,58,0.00,,---,0.00,VWS V13.01,2013-12-08 11:09:00,
2013-12-08 05:14:00,-12.6,-23.2,30.43,SW,220,3.1,3.1,58,0.00,,---,0.00,VWS V13.01,2013-12-08 11:14:00,
2013-12-08 05:20:00,-12.1,-22.7,30.43,SW,236,4.0,4.0,58,0.00,,---,0.00,VWS V13.01,2013-12-08 11:20:00,
2013-12-08 05:25:00,-12.1,-22.7,30.43,SW,235,3.6,4.0,58,0.00,,---,0.00,VWS V13.01,2013-12-08 11:25:00,
2013-12-08 05:30:00,-12.1,-22.7,30.43,SW,228,3.6,4.0,58,0.00,,---,0.00,VWS V13.01,2013-12-08 11:30:00,
2013-12-08 05:35:00,-12.1,-22.7,30.43,SW,228,3.1,3.1,58,0.00,,---,0.00,VWS V13.01,2013-12-08 11:35:00,
2013-12-08 05:40:00,-12.1,-22.7,30.43,SW,228,3.1,3.1,58,0.00,,---,0.00,VWS V13.01,2013-12-08 11:40:00,
2013-12-08 05:45:00,-12.1,-22.7,30.40,SW,228,0.0,0.0,58,0.00,,---,0.00,VWS V13.01,2013-12-08 11:45:00,
2013-12-08 05:50:00,-12.1,-22.7,30.40,SW,228,0.0,0.0,58,0.00,,---,0.00,VWS V13.01,2013-12-08 11:50:00,
2013-12-08 05:55:00,-12.1,-22.7,30.40,SW,228,0.0,0.0,58,0.00,,---,0.00,VWS V13.01,2013-12-08 11:55:00,
2013-12-08 06:00:00,-12.3,-22.9,30.43,SW,215,3.6,3.6,58,0.00,,---,0.00,VWS V13.01,2013-12-08 12:00:00,
2013-12-08 06:05:00,-12.6,-23.2,30.43,SW,216,3.1,3.6,58,0.00,,---,0.00,VWS V13.01,2013-12-08 12:05:00,
2013-12-08 06:10:00,-12.6,-23.2,30.43,SW,218,2.7,2.7,58,0.00,,---,0.00,VWS V13.01,2013-12-08 12:10:00,
2013-12-08 06:15:00,-12.5,-23.0,30.40,SW,218,2.7,3.1,58,0.00,,---,0.00,VWS V13.01,2013-12-08 12:15:00,
2013-12-08 06:20:00,-12.5,-23.0,30.40,SW,218,0.0,0.0,58,0.00,,---,0.00,VWS V13.01,2013-12-08 12:20:00,
2013-12-08 06:25:00,-12.8,-23.4,30.40,SW,218,0.0,0.0,58,0.00,,---,0.00,VWS V13.01,2013-12-08 12:25:00,
2013-12-08 06:30:00,-12.8,-23.4,30.40,SW,218,0.0,0.0,58,0.00,,---,0.00,VWS V13.01,2013-12-08 12:30:00,
2013-12-08 06:35:00,-12.8,-23.4,30.40,SW,218,0.0,0.0,58,0.00,,---,0.00,VWS V13.01,2013-12-08 12:35:00,
2013-12-08 06:40:00,-12.8,-23.4,30.40,SW,218,0.0,0.0,58,0.00,,---,0.00,VWS V13.01,2013-12-08 12:40:00,
2013-12-08 06:45:00,-13.0,-23.5,30.43,SW,219,0.0,0.0,58,0.00,,---,0.00,VWS V13.01,2013-12-08 12:45:00,
2013-12-08 06:51:00,-13.2,-23.7,30.43,SW,216,3.6,3.6,58,0.00,,---,0.00,VWS V13.01,2013-12-08 12:51:00,
2013-12-08 06:56:00,-13.0,-23.5,30.43,SW,217,3.6,3.6,58,0.00,,---,0.00,VWS V13.01,2013-12-08 12:56:00,
2013-12-08 07:01:00,-12.8,-23.4,30.40,SW,216,3.6,3.6,58,0.00,,---,0.00,VWS V13.01,2013-12-08 13:01:00,
2013-12-08 07:06:00,-12.8,-23.4,30.40,SW,216,0.0,2.7,58,0.00,,---,0.00,VWS V13.01,2013-12-08 13:06:00,
2013-12-08 07:11:00,-12.6,-23.2,30.40,SW,216,0.0,0.0,58,0.00,,---,0.00,VWS V13.01,2013-12-08 13:11:00,
2013-12-08 07:16:00,-12.8,-23.4,30.40,SW,217,0.0,0.0,58,0.00,,---,0.00,VWS V13.01,2013-12-08 13:16:00,
2013-12-08 07:21:00,-12.8,-23.4,30.40,SW,216,0.0,0.0,58,0.00,,---,0.00,VWS V13.01,2013-12-08 13:21:00,
2013-12-08 07:26:00,-12.8,-23.4,30.40,SW,216,0.0,0.0,58,0.00,,---,0.00,VWS V13.01,2013-12-08 13:26:00,
2013-12-08 07:31:00,-12.8,-23.4,30.40,SW,217,0.0,0.0,58,0.00,,---,0.00,VWS V13.01,2013-12-08 13:31:00,
2013-12-08 07:36:00,-12.8,-23.4,30.40,SW,217,0.0,0.0,58,0.00,,---,0.00,VWS V13.01,2013-12-08 13:36:00,
2013-12-08 07:41:00,-12.6,-23.2,30.40,SW,216,0.0,0.0,58,0.00,,---,0.00,VWS V13.01,2013-12-08 13:41:00,
2013-12-08 07:46:00,-12.5,-23.0,30.40,SW,216,0.0,0.0,58,0.00,,---,0.00,VWS V13.01,2013-12-08 13:46:00,
2013-12-08 07:51:00,-12.3,-22.9,30.40,SW,216,0.0,0.0,58,0.00,,---,0.00,VWS V13.01,2013-12-08 13:51:00,
2013-12-08 07:56:00,-12.1,-22.7,30.40,SW,216,0.0,0.0,58,0.00,,---,0.00,VWS V13.01,2013-12-08 13:56:00,
2013-12-08 08:02:00,-11.9,-22.5,30.37,SW,216,0.0,0.0,58,0.00,,---,0.00,VWS V13.01,2013-12-08 14:02:00,
2013-12-08 08:07:00,-11.7,-22.4,30.37,SW,216,0.0,0.0,58,0.00,,---,0.00,VWS V13.01,2013-12-08 14:07:00,
2013-12-08 08:12:00,-11.6,-22.2,30.37,SW,216,0.0,0.0,58,0.00,,---,0.00,VWS V13.01,2013-12-08 14:12:00,
2013-12-08 08:17:00,-11.4,-22.0,30.40,SW,216,0.0,0.0,58,0.00,,---,0.00,VWS V13.01,2013-12-08 14:17:00,
2013-12-08 08:22:00,-11.2,-21.9,30.40,SW,216,0.0,0.0,58,0.00,,---,0.00,VWS V13.01,2013-12-08 14:22:00,
2013-12-08 08:27:00,-11.0,-21.7,30.40,SW,216,0.0,0.0,58,0.00,,---,0.00,VWS V13.01,2013-12-08 14:27:00,
2013-12-08 08:33:00,-10.7,-21.3,30.40,SW,216,0.0,0.0,58,0.00,,---,0.00,VWS V13.01,2013-12-08 14:33:00,
2013-12-08 08:38:00,-10.5,-21.2,30.40,SW,217,0.0,0.0,58,0.00,,---,0.00,VWS V13.01,2013-12-08 14:38:00,
2013-12-08 08:43:00,-10.3,-21.0,30.40,SW,216,0.0,0.0,58,0.00,,---,0.00,VWS V13.01,2013-12-08 14:43:00,
2013-12-08 08:48:00,-10.1,-20.8,30.37,SW,216,0.0,0.0,58,0.00,,---,0.00,VWS V13.01,2013-12-08 14:48:00,
2013-12-08 08:53:00,-9.8,-20.5,30.37,SW,216,0.0,0.0,58,0.00,,---,0.00,VWS V13.01,2013-12-08 14:53:00,
2013-12-08 08:58:00,-9.6,-20.3,30.37,SW,217,0.0,0.0,58,0.00,,---,0.00,VWS V13.01,2013-12-08 14:58:00,
2013-12-08 09:03:00,-9.2,-20.0,30.37,SW,216,0.0,0.0,58,0.00,,---,0.00,VWS V13.01,2013-12-08 15:03:00,
2013-12-08 09:08:00,-8.7,-19.5,30.37,SW,216,0.0,0.0,58,0.00,,---,0.00,VWS V13.01,2013-12-08 15:08:00,
2013-12-08 09:13:00,-8.3,-19.1,30.37,SW,216,0.0,0.0,58,0.00,,---,0.00,VWS V13.01,2013-12-08 15:13:00,
2013-12-08 09:18:00,-8.0,-18.8,30.37,SW,216,0.0,0.0,58,0.00,,---,0.00,VWS V13.01,2013-12-08 15:18:00,
2013-12-08 09:23:00,-7.8,-18.6,30.37,SW,216,0.0,0.0,58,0.00,,---,0.00,VWS V13.01,2013-12-08 15:23:00,
2013-12-08 09:28:00,-7.4,-18.3,30.37,SW,216,0.0,0.0,58,0.00,,---,0.00,VWS V13.01,2013-12-08 15:28:00,
2013-12-08 09:33:00,-7.2,-18.1,30.37,SW,216,0.0,0.0,58,0.00,,---,0.00,VWS V13.01,2013-12-08 15:33:00,
2013-12-08 09:38:00,-6.9,-17.8,30.37,SW,216,0.0,0.0,58,0.00,,---,0.00,VWS V13.01,2013-12-08 15:38:00,
2013-12-08 09:44:00,-6.5,-17.4,30.37,SW,216,0.0,0.0,58,0.00,,---,0.00,VWS V13.01,2013-12-08 15:44:00,
2013-12-08 09:49:00,-6.3,-17.2,30.37,SW,216,0.0,0.0,58,0.00,,---,0.00,VWS V13.01,2013-12-08 15:49:00,
2013-12-08 09:54:00,-6.2,-17.1,30.37,SW,216,0.0,0.0,58,0.00,,---,0.00,VWS V13.01,2013-12-08 15:54:00,
2013-12-08 09:59:00,-5.8,-16.7,30.37,SW,216,0.0,0.0,58,0.00,,---,0.00,VWS V13.01,2013-12-08 15:59:00,
2013-12-08 10:04:00,-5.4,-16.4,30.37,SSE,154,3.1,3.6,58,0.00,,---,0.00,VWS V13.01,2013-12-08 16:04:00,
2013-12-08 10:09:00,-5.1,-16.1,30.37,SSE,154,3.6,3.6,58,0.00,,---,0.00,VWS V13.01,2013-12-08 16:09:00,
2013-12-08 10:14:00,-5.1,-16.1,30.37,South,187,3.6,4.0,58,0.00,,---,0.00,VWS V13.01,2013-12-08 16:14:00,
2013-12-08 10:19:00,-4.9,-15.9,30.37,South,187,3.1,3.1,58,0.00,,---,0.00,VWS V13.01,2013-12-08 16:19:00,
2013-12-08 10:24:00,-4.7,-15.7,30.37,South,187,0.0,0.0,58,0.00,,---,0.00,VWS V13.01,2013-12-08 16:24:00,
2013-12-08 10:29:00,-4.7,-15.7,30.37,South,187,0.0,0.0,58,0.00,,---,0.00,VWS V13.01,2013-12-08 16:29:00,
2013-12-08 10:34:00,-4.7,-15.7,30.37,South,187,0.0,0.0,58,0.00,,---,0.00,VWS V13.01,2013-12-08 16:34:00,
2013-12-08 10:39:00,-4.5,-15.6,30.37,South,187,0.0,0.0,58,0.00,,---,0.00,VWS V13.01,2013-12-08 16:39:00,
2013-12-08 10:45:00,-4.4,-15.4,30.37,South,187,0.0,0.0,58,0.00,,---,0.00,VWS V13.01,2013-12-08 16:45:00,
2013-12-08 10:50:00,-4.2,-15.2,30.34,South,187,0.0,0.0,58,0.00,,---,0.00,VWS V13.01,2013-12-08 16:50:00,
2013-12-08 10:55:00,-3.8,-14.9,30.34,South,187,0.0,0.0,58,0.00,,---,0.00,VWS V13.01,2013-12-08 16:55:00,
2013-12-08 11:00:00,-3.6,-14.7,30.34,SW,223,2.7,2.7,58,0.00,,---,0.00,VWS V13.01,2013-12-08 17:00:00,
2013-12-08 11:05:00,-3.5,-14.5,30.34,SW,223,3.6,3.6,58,0.00,,---,0.00,VWS V13.01,2013-12-08 17:05:00,
2013-12-08 11:10:00,-3.1,-14.2,30.34,SW,230,3.1,3.6,58,0.00,,---,0.00,VWS V13.01,2013-12-08 17:10:00,
2013-12-08 11:15:00,-2.9,-14.0,30.34,SSW,195,3.1,3.1,58,0.00,,---,0.00,VWS V13.01,2013-12-08 17:15:00,
2013-12-08 11:20:00,-2.6,-13.7,30.34,SSW,198,3.6,3.6,58,0.00,,---,0.00,VWS V13.01,2013-12-08 17:20:00,
2013-12-08 11:25:00,-2.4,-13.5,30.34,SSW,211,3.1,3.1,58,0.00,,---,0.00,VWS V13.01,2013-12-08 17:25:00,
2013-12-08 11:30:00,-2.2,-13.3,30.31,SSW,211,0.0,0.0,58,0.00,,---,0.00,VWS V13.01,2013-12-08 17:30:00,
2013-12-08 11:35:00,-1.8,-13.0,30.31,SSW,210,0.0,0.0,58,0.00,,---,0.00,VWS V13.01,2013-12-08 17:35:00,
2013-12-08 11:41:00,-1.7,-12.8,30.31,SSW,211,0.0,0.0,58,0.00,,---,0.00,VWS V13.01,2013-12-08 17:41:00,
2013-12-08 11:46:00,-1.5,-12.7,30.31,SSW,211,3.1,3.1,58,0.00,,---,0.00,VWS V13.01,2013-12-08 17:46:00,
2013-12-08 11:51:00,-1.3,-12.5,30.31,SSW,211,0.0,0.0,58,0.00,,---,0.00,VWS V13.01,2013-12-08 17:51:00,
2013-12-08 11:56:00,-0.9,-12.1,30.31,SSW,210,0.0,0.0,58,0.00,,---,0.00,VWS V13.01,2013-12-08 17:56:00,
2013-12-08 12:01:00,-0.6,-11.8,30.28,SSW,210,0.0,0.0,58,0.00,,---,0.00,VWS V13.01,2013-12-08 18:01:00,
2013-12-08 12:06:00,-0.2,-11.5,30.28,SSW,204,0.0,0.0,58,0.00,,---,0.00,VWS V13.01,2013-12-08 18:06:00,
2013-12-08 12:11:00,0.1,-11.1,30.28,SSW,197,0.0,0.0,58,0.00,,---,0.00,VWS V13.01,2013-12-08 18:11:00,
2013-12-08 12:16:00,0.3,-11.0,30.28,SSW,193,0.0,0.0,58,0.00,,---,0.00,VWS V13.01,2013-12-08 18:16:00,
2013-12-08 12:21:00,0.7,-10.6,30.28,SSW,193,0.0,0.0,58,0.00,,---,0.00,VWS V13.01,2013-12-08 18:21:00,
2013-12-08 12:26:00,1.2,-10.1,30.28,SSW,193,0.0,0.0,58,0.00,,---,0.00,VWS V13.01,2013-12-08 18:26:00,
2013-12-08 12:31:00,1.6,-9.8,30.28,SSW,193,0.0,0.0,58,0.00,,---,0.00,VWS V13.01,2013-12-08 18:31:00,
2013-12-08 12:36:00,1.6,-9.8,30.28,SSE,158,3.1,3.1,58,0.00,,---,0.00,VWS V13.01,2013-12-08 18:36:00,
2013-12-08 12:42:00,1.8,-9.6,30.28,SSE,160,3.6,3.6,58,0.00,,---,0.00,VWS V13.01,2013-12-08 18:42:00,
2013-12-08 12:47:00,1.6,-9.8,30.28,SE,126,0.0,0.0,58,0.00,,---,0.00,VWS V13.01,2013-12-08 18:47:00,
2013-12-08 12:52:00,1.6,-9.8,30.28,SE,140,3.1,3.6,58,0.00,,---,0.00,VWS V13.01,2013-12-08 18:52:00,
2013-12-08 12:57:00,1.6,-9.8,30.28,SE,145,3.6,4.0,58,0.00,,---,0.00,VWS V13.01,2013-12-08 18:57:00,
2013-12-08 13:02:00,1.6,-9.8,30.25,SE,145,0.0,0.0,58,0.00,,---,0.00,VWS V13.01,2013-12-08 19:02:00,
2013-12-08 13:07:00,1.9,-9.4,30.25,SE,145,0.0,0.0,58,0.00,,---,0.00,VWS V13.01,2013-12-08 19:07:00,
2013-12-08 13:12:00,2.5,-8.9,30.25,SE,145,0.0,0.0,58,0.00,,---,0.00,VWS V13.01,2013-12-08 19:12:00,
2013-12-08 13:17:00,2.7,-8.7,30.25,SE,145,0.0,0.0,58,0.00,,---,0.00,VWS V13.01,2013-12-08 19:17:00,
2013-12-08 13:22:00,2.8,-8.6,30.25,SE,145,0.0,0.0,58,0.00,,---,0.00,VWS V13.01,2013-12-08 19:22:00,
2013-12-08 13:27:00,3.2,-8.2,30.25,SE,145,0.0,0.0,58,0.00,,---,0.00,VWS V13.01,2013-12-08 19:27:00,
2013-12-08 13:32:00,3.4,-8.1,30.22,SSE,158,0.0,3.6,58,0.00,,---,0.00,VWS V13.01,2013-12-08 19:32:00,
2013-12-08 13:37:00,3.6,-7.9,30.22,SSE,158,0.0,0.0,58,0.00,,---,0.00,VWS V13.01,2013-12-08 19:37:00,
2013-12-08 13:42:00,3.7,-7.7,30.22,SSE,158,0.0,0.0,58,0.00,,---,0.00,VWS V13.01,2013-12-08 19:42:00,
2013-12-08 13:47:00,3.7,-7.7,30.22,SSE,158,0.0,0.0,58,0.00,,---,0.00,VWS V13.01,2013-12-08 19:47:00,
2013-12-08 13:52:00,3.9,-7.6,30.22,SSE,158,0.0,0.0,58,0.00,,---,0.00,VWS V13.01,2013-12-08 19:52:00,
2013-12-08 13:57:00,4.1,-7.4,30.22,SSE,158,0.0,0.0,58,0.00,,---,0.00,VWS V13.01,2013-12-08 19:57:00,
2013-12-08 14:02:00,4.5,-7.0,30.22,SSE,158,0.0,0.0,58,0.00,,---,0.00,VWS V13.01,2013-12-08 20:02:00,
2013-12-08 14:09:00,4.6,-6.9,30.22,SSE,158,0.0,0.0,58,0.00,,---,0.00,VWS V13.01,2013-12-08 20:09:00,
2013-12-08 14:14:00,4.6,-6.9,30.22,SSE,168,4.0,4.0,58,0.00,,---,0.00,VWS V13.01,2013-12-08 20:14:00,
2013-12-08 14:19:00,4.5,-7.0,30.22,SSE,166,2.7,3.1,58,0.00,,---,0.00,VWS V13.01,2013-12-08 20:19:00,
2013-12-08 14:24:00,4.1,-7.4,30.22,SSE,166,0.0,0.0,58,0.00,,---,0.00,VWS V13.01,2013-12-08 20:24:00,
2013-12-08 14:29:00,3.9,-7.6,30.22,SSE,166,0.0,0.0,58,0.00,,---,0.00,VWS V13.01,2013-12-08 20:29:00,
2013-12-08 14:34:00,3.9,-7.6,30.19,SSE,166,0.0,0.0,58,0.00,,---,0.00,VWS V13.01,2013-12-08 20:34:00,
2013-12-08 14:39:00,3.9,-7.6,30.19,SSE,166,3.1,3.1,58,0.00,,---,0.00,VWS V13.01,2013-12-08 20:39:00,
2013-12-08 14:44:00,3.7,-7.7,30.19,SSE,166,0.0,0.0,58,0.00,,---,0.00,VWS V13.01,2013-12-08 20:44:00,
2013-12-08 14:49:00,3.7,-7.7,30.19,SSE,166,0.0,0.0,58,0.00,,---,0.00,VWS V13.01,2013-12-08 20:49:00,
2013-12-08 14:55:00,3.7,-7.7,30.19,SSE,166,0.0,0.0,58,0.00,,---,0.00,VWS V13.01,2013-12-08 20:55:00,
2013-12-08 15:00:00,3.7,-7.7,30.19,SSE,166,0.0,0.0,58,0.00,,---,0.00,VWS V13.01,2013-12-08 21:00:00,
2013-12-08 15:05:00,3.7,-7.7,30.19,SSE,166,0.0,0.0,58,0.00,,---,0.00,VWS V13.01,2013-12-08 21:05:00,
2013-12-08 15:10:00,3.7,-7.7,30.19,SSE,166,0.0,0.0,58,0.00,,---,0.00,VWS V13.01,2013-12-08 21:10:00,
2013-12-08 15:15:00,3.7,-7.7,30.19,SSE,166,0.0,0.0,58,0.00,,---,0.00,VWS V13.01,2013-12-08 21:15:00,
2013-12-08 15:20:00,3.7,-7.7,30.19,SSE,166,0.0,0.0,58,0.00,,---,0.00,VWS V13.01,2013-12-08 21:20:00,
2013-12-08 15:25:00,3.7,-7.7,30.19,SSE,166,0.0,0.0,58,0.00,,---,0.00,VWS V13.01,2013-12-08 21:25:00,
2013-12-08 15:30:00,3.7,-7.7,30.19,SSE,166,0.0,0.0,58,0.00,,---,0.00,VWS V13.01,2013-12-08 21:30:00,
2013-12-08 15:35:00,3.7,-7.7,30.19,SSE,166,0.0,0.0,58,0.00,,---,0.00,VWS V13.01,2013-12-08 21:35:00,
2013-12-08 15:40:00,3.6,-7.9,30.19,SSE,166,0.0,0.0,58,0.00,,---,0.00,VWS V13.01,2013-12-08 21:40:00,
2013-12-08 15:45:00,3.4,-8.1,30.19,SSE,166,0.0,0.0,58,0.00,,---,0.00,VWS V13.01,2013-12-08 21:45:00,
2013-12-08 15:50:00,3.4,-8.1,30.19,SSE,166,0.0,0.0,58,0.00,,---,0.00,VWS V13.01,2013-12-08 21:50:00,
2013-12-08 15:56:00,3.2,-8.2,30.19,SSE,166,0.0,0.0,58,0.00,,---,0.00,VWS V13.01,2013-12-08 21:56:00,
2013-12-08 16:01:00,3.2,-8.2,30.19,SSE,166,0.0,0.0,58,0.00,,---,0.00,VWS V13.01,2013-12-08 22:01:00,
2013-12-08 16:06:00,3.2,-8.2,30.19,SSE,166,0.0,0.0,58,0.00,,---,0.00,VWS V13.01,2013-12-08 22:06:00,
2013-12-08 16:11:00,3.2,-8.2,30.19,SSE,166,0.0,0.0,58,0.00,,---,0.00,VWS V13.01,2013-12-08 22:11:00,
2013-12-08 16:16:00,3.0,-8.4,30.19,SSE,166,0.0,0.0,58,0.00,,---,0.00,VWS V13.01,2013-12-08 22:16:00,
2013-12-08 16:21:00,2.8,-8.6,30.19,SSE,166,0.0,0.0,58,0.00,,---,0.00,VWS V13.01,2013-12-08 22:21:00,
2013-12-08 16:26:00,2.8,-8.6,30.19,ENE,64,2.7,2.7,58,0.00,,---,0.00,VWS V13.01,2013-12-08 22:26:00,
2013-12-08 16:31:00,2.7,-8.7,30.16,East,83,3.6,3.6,58,0.00,,---,0.00,VWS V13.01,2013-12-08 22:31:00,
2013-12-08 16:36:00,2.7,-8.7,30.16,East,83,3.1,3.6,58,0.00,,---,0.00,VWS V13.01,2013-12-08 22:36:00,
2013-12-08 16:41:00,2.5,-8.9,30.16,East,83,3.1,3.6,58,0.00,,---,0.00,VWS V13.01,2013-12-08 22:41:00,
2013-12-08 16:46:00,2.5,-8.9,30.16,East,83,3.1,3.1,58,0.00,,---,0.00,VWS V13.01,2013-12-08 22:46:00,
2013-12-08 16:51:00,2.7,-8.7,30.16,ENE,67,4.0,4.0,58,0.00,,---,0.00,VWS V13.01,2013-12-08 22:51:00,
2013-12-08 16:57:00,2.7,-8.7,30.16,ENE,67,3.6,3.6,58,0.00,,---,0.00,VWS V13.01,2013-12-08 22:57:00,
2013-12-08 17:02:00,2.8,-8.6,30.16,ENE,68,2.7,3.6,58,0.00,,---,0.00,VWS V13.01,2013-12-08 23:02:00,
2013-12-08 17:07:00,3.2,-8.2,30.16,ENE,68,3.1,3.1,58,0.00,,---,0.00,VWS V13.01,2013-12-08 23:07:00,
2013-12-08 17:12:00,3.4,-8.1,30.16,ENE,64,3.1,4.0,58,0.00,,---,0.00,VWS V13.01,2013-12-08 23:12:00,
2013-12-08 17:17:00,3.6,-7.9,30.13,ENE,60,3.6,3.6,58,0.00,,---,0.00,VWS V13.01,2013-12-08 23:17:00,
2013-12-08 17:22:00,3.7,-7.7,30.13,ENE,61,3.1,3.6,58,0.00,,---,0.00,VWS V13.01,2013-12-08 23:22:00,
2013-12-08 17:27:00,3.7,-7.7,30.13,ENE,61,2.7,2.7,58,0.00,,---,0.00,VWS V13.01,2013-12-08 23:27:00,
2013-12-08 17:32:00,3.7,-7.7,30.13,NE,55,0.0,0.0,58,0.00,,---,0.00,VWS V13.01,2013-12-08 23:32:00,
2013-12-08 17:37:00,3.9,-7.6,30.13,ENE,67,0.0,0.0,58,0.00,,---,0.00,VWS V13.01,2013-12-08 23:37:00,
2013-12-08 17:42:00,4.1,-7.4,30.13,ENE,67,0.0,0.0,58,0.00,,---,0.00,VWS V13.01,2013-12-08 23:42:00,
2013-12-08 17:47:00,4.1,-7.4,30.13,ENE,74,0.0,0.0,58,0.00,,---,0.00,VWS V13.01,2013-12-08 23:47:00,
2013-12-08 17:53:00,4.3,-7.2,30.13,ENE,57,4.0,4.0,58,0.00,,---,0.00,VWS V13.01,2013-12-08 23:53:00,
2013-12-08 17:58:00,4.5,-7.0,30.13,ENE,57,3.1,3.1,58,0.00,,---,0.00,VWS V13.01,2013-12-08 23:58:00,
2013-12-08 18:03:00,4.5,-7.0,30.13,ENE,57,3.1,3.1,58,0.00,,---,0.00,VWS V13.01,2013-12-09 00:03:00,
2013-12-08 18:08:00,4.5,-7.0,30.13,ENE,58,0.0,0.0,58,0.00,,---,0.00,VWS V13.01,2013-12-09 00:08:00,
2013-12-08 18:13:00,4.5,-7.0,30.13,ENE,58,0.0,0.0,58,0.00,,---,0.00,VWS V13.01,2013-12-09 00:13:00,
2013-12-08 18:18:00,4.6,-6.9,30.13,ENE,57,0.0,0.0,58,0.00,,---,0.00,VWS V13.01,2013-12-09 00:18:00,
2013-12-08 18:23:00,4.6,-6.9,30.13,ENE,57,0.0,0.0,58,0.00,,---,0.00,VWS V13.01,2013-12-09 00:23:00,
2013-12-08 18:28:00,4.8,-6.7,30.13,ENE,57,2.7,2.7,58,0.00,,---,0.00,VWS V13.01,2013-12-09 00:28:00,
2013-12-08 18:33:00,5.0,-6.5,30.10,ENE,58,3.1,3.6,58,0.00,,---,0.00,VWS V13.01,2013-12-09 00:33:00,
2013-12-08 18:38:00,5.0,-6.5,30.10,ENE,58,2.7,3.1,58,0.00,,---,0.00,VWS V13.01,2013-12-09 00:38:00,
2013-12-08 18:43:00,5.0,-6.5,30.10,ENE,58,2.7,3.1,58,0.00,,---,0.00,VWS V13.01,2013-12-09 00:43:00,
2013-12-08 18:48:00,5.2,-6.4,30.10,ENE,57,0.0,0.0,58,0.00,,---,0.00,VWS V13.01,2013-12-09 00:48:00,
2013-12-08 18:53:00,5.2,-6.4,30.10,ENE,57,0.0,0.0,58,0.00,,---,0.00,VWS V13.01,2013-12-09 00:53:00,
2013-12-08 18:58:00,5.2,-6.4,30.10,ENE,57,0.0,0.0,58,0.00,,---,0.00,VWS V13.01,2013-12-09 00:58:00,
2013-12-08 19:03:00,5.2,-6.4,30.10,ENE,57,0.0,0.0,58,0.00,,---,0.00,VWS V13.01,2013-12-09 01:03:00,
2013-12-08 19:08:00,5.4,-6.2,30.10,ENE,58,0.0,0.0,58,0.00,,---,0.00,VWS V13.01,2013-12-09 01:08:00,
2013-12-08 19:14:00,5.2,-6.4,30.10,ENE,58,0.0,0.0,58,0.00,,---,0.00,VWS V13.01,2013-12-09 01:14:00,
2013-12-08 19:19:00,5.2,-6.4,30.10,ENE,58,0.0,0.0,58,0.00,,---,0.00,VWS V13.01,2013-12-09 01:19:00,
2013-12-08 19:24:00,5.4,-6.2,30.10,ENE,57,0.0,0.0,58,0.00,,---,0.00,VWS V13.01,2013-12-09 01:24:00,
2013-12-08 19:29:00,5.4,-6.2,30.10,ENE,57,0.0,0.0,58,0.00,,---,0.00,VWS V13.01,2013-12-09 01:29:00,
2013-12-08 19:34:00,5.2,-6.4,30.10,ENE,58,0.0,0.0,58,0.00,,---,0.00,VWS V13.01,2013-12-09 01:34:00,
2013-12-08 19:39:00,5.2,-6.4,30.10,ENE,58,0.0,0.0,58,0.00,,---,0.00,VWS V13.01,2013-12-09 01:39:00,
2013-12-08 19:44:00,5.2,-6.4,30.10,ENE,58,0.0,0.0,58,0.00,,---,0.00,VWS V13.01,2013-12-09 01:44:00,
2013-12-08 19:49:00,5.0,-6.5,30.07,ENE,58,0.0,0.0,58,0.00,,---,0.00,VWS V13.01,2013-12-09 01:49:00,
2013-12-08 19:54:00,5.0,-6.5,30.07,ENE,57,0.0,0.0,58,0.00,,---,0.00,VWS V13.01,2013-12-09 01:54:00,
2013-12-08 19:59:00,5.0,-6.5,30.07,ENE,58,0.0,0.0,58,0.00,,---,0.00,VWS V13.01,2013-12-09 01:59:00,
2013-12-08 20:04:00,4.8,-6.7,30.07,ENE,58,0.0,0.0,58,0.00,,---,0.00,VWS V13.01,2013-12-09 02:04:00,
2013-12-08 20:09:00,4.5,-7.0,30.07,ENE,58,0.0,0.0,58,0.00,,---,0.00,VWS V13.01,2013-12-09 02:09:00,
2013-12-08 20:14:00,4.5,-7.0,30.07,ENE,57,0.0,0.0,58,0.00,,---,0.00,VWS V13.01,2013-12-09 02:14:00,
2013-12-08 20:20:00,4.5,-7.0,30.07,ENE,57,0.0,0.0,58,0.00,,---,0.00,VWS V13.01,2013-12-09 02:20:00,
2013-12-08 20:25:00,4.5,-7.0,30.07,ENE,57,0.0,0.0,58,0.00,,---,0.00,VWS V13.01,2013-12-09 02:25:00,
2013-12-08 20:30:00,4.5,-7.0,30.07,ENE,57,0.0,0.0,58,0.00,,---,0.00,VWS V13.01,2013-12-09 02:30:00,
2013-12-08 20:35:00,4.8,-6.7,30.07,ENE,57,0.0,0.0,58,0.00,,---,0.00,VWS V13.01,2013-12-09 02:35:00,
2013-12-08 20:40:00,5.0,-6.5,30.07,ENE,58,0.0,0.0,58,0.00,,---,0.00,VWS V13.01,2013-12-09 02:40:00,
2013-12-08 20:45:00,5.2,-6.4,30.04,ENE,58,0.0,0.0,58,0.00,,---,0.00,VWS V13.01,2013-12-09 02:45:00,
2013-12-08 20:50:00,5.4,-6.2,30.04,ENE,57,0.0,0.0,58,0.00,,---,0.00,VWS V13.01,2013-12-09 02:50:00,
2013-12-08 20:55:00,5.4,-6.2,30.04,ENE,58,0.0,0.0,58,0.00,,---,0.00,VWS V13.01,2013-12-09 02:55:00,
2013-12-08 21:00:00,5.4,-6.2,30.04,ENE,57,0.0,0.0,58,0.00,,---,0.00,VWS V13.01,2013-12-09 03:00:00,
2013-12-08 21:05:00,5.4,-6.2,30.04,ENE,58,0.0,0.0,58,0.00,,---,0.00,VWS V13.01,2013-12-09 03:05:00,
2013-12-08 21:10:00,5.4,-6.2,30.04,ENE,58,0.0,0.0,58,0.00,,---,0.00,VWS V13.01,2013-12-09 03:10:00,
2013-12-08 21:15:00,5.5,-6.0,30.04,ENE,58,0.0,0.0,58,0.00,,---,0.00,VWS V13.01,2013-12-09 03:15:00,
2013-12-08 21:20:00,5.5,-6.0,30.04,ENE,58,0.0,0.0,58,0.00,,---,0.00,VWS V13.01,2013-12-09 03:20:00,
2013-12-08 21:25:00,5.7,-5.9,30.04,ENE,58,0.0,0.0,58,0.00,,---,0.00,VWS V13.01,2013-12-09 03:25:00,
2013-12-08 21:31:00,5.7,-5.9,30.04,ENE,57,0.0,0.0,58,0.00,,---,0.00,VWS V13.01,2013-12-09 03:31:00,
2013-12-08 21:36:00,5.7,-5.9,30.04,ENE,57,0.0,0.0,58,0.00,,---,0.00,VWS V13.01,2013-12-09 03:36:00,
2013-12-08 21:41:00,5.7,-5.9,30.04,ENE,57,0.0,0.0,58,0.00,,---,0.00,VWS V13.01,2013-12-09 03:41:00,
2013-12-08 21:46:00,5.7,-5.9,30.01,ENE,57,0.0,0.0,58,0.00,,---,0.00,VWS V13.01,2013-12-09 03:46:00,
2013-12-08 21:51:00,5.9,-5.7,30.01,ENE,57,0.0,0.0,58,0.00,,---,0.00,VWS V13.01,2013-12-09 03:51:00,
2013-12-08 21:56:00,5.9,-5.7,30.01,ENE,58,0.0,0.0,58,0.00,,---,0.00,VWS V13.01,2013-12-09 03:56:00,
2013-12-08 22:01:00,5.9,-5.7,30.01,ENE,58,0.0,0.0,58,0.00,,---,0.00,VWS V13.01,2013-12-09 04:01:00,
2013-12-08 22:06:00,5.9,-5.7,30.01,ENE,57,0.0,0.0,58,0.00,,---,0.00,VWS V13.01,2013-12-09 04:06:00,
2013-12-08 22:11:00,5.9,-5.7,30.01,ENE,57,0.0,0.0,58,0.00,,---,0.00,VWS V13.01,2013-12-09 04:11:00,
2013-12-08 22:16:00,5.7,-5.9,30.01,ENE,58,0.0,0.0,58,0.00,,---,0.00,VWS V13.01,2013-12-09 04:16:00,
2013-12-08 22:21:00,5.9,-5.7,30.01,ENE,57,0.0,0.0,58,0.00,,---,0.00,VWS V13.01,2013-12-09 04:21:00,
2013-12-08 22:26:00,5.9,-5.7,30.01,ENE,57,0.0,0.0,58,0.00,,---,0.00,VWS V13.01,2013-12-09 04:26:00,
2013-12-08 22:31:00,6.1,-5.5,30.01,ENE,57,0.0,0.0,58,0.00,,---,0.00,VWS V13.01,2013-12-09 04:31:00,
2013-12-08 22:37:00,6.3,-5.3,30.01,ENE,58,0.0,0.0,58,0.00,,---,0.00,VWS V13.01,2013-12-09 04:37:00,
2013-12-08 22:42:00,6.4,-5.2,30.01,ENE,57,0.0,0.0,58,0.00,,---,0.00,VWS V13.01,2013-12-09 04:42:00,
2013-12-08 22:47:00,6.6,-5.0,30.01,SW,234,2.7,2.7,58,0.00,,---,0.00,VWS V13.01,2013-12-09 04:47:00,
2013-12-08 22:52:00,6.8,-4.8,30.01,SW,234,4.0,4.0,58,0.00,,---,0.00,VWS V13.01,2013-12-09 04:52:00,
2013-12-08 22:57:00,7.0,-4.7,30.01,SW,225,3.6,3.6,58,0.00,,---,0.00,VWS V13.01,2013-12-09 04:57:00,
2013-12-08 23:01:00,7.2,-4.5,29.98,SW,226,3.1,3.6,58,0.00,,---,0.00,VWS V13.01,2013-12-09 05:01:00,
2013-12-08 23:02:00,7.2,-4.5,29.98,SW,226,3.1,3.1,58,0.00,,---,0.00,VWS V13.01,2013-12-09 05:02:00,
2013-12-08 23:03:00,7.3,-4.3,29.98,SW,226,3.6,3.6,58,0.00,,---,0.00,VWS V13.01,2013-12-09 05:03:00,
2013-12-08 23:09:00,7.5,-4.2,29.98,SW,226,2.7,2.7,58,0.00,,---,0.00,VWS V13.01,2013-12-09 05:09:00,
2013-12-08 23:14:00,7.5,-4.2,29.98,SW,226,0.0,0.0,58,0.00,,---,0.00,VWS V13.01,2013-12-09 05:14:00,
2013-12-08 23:19:00,7.7,-4.0,29.98,SW,226,0.0,0.0,58,0.00,,---,0.00,VWS V13.01,2013-12-09 05:19:00,
2013-12-08 23:24:00,7.7,-4.0,29.98,SW,226,0.0,0.0,58,0.00,,---,0.00,VWS V13.01,2013-12-09 05:24:00,
2013-12-08 23:29:00,7.7,-4.0,29.98,SW,226,0.0,0.0,58,0.00,,---,0.00,VWS V13.01,2013-12-09 05:29:00,
2013-12-08 23:34:00,7.7,-4.0,29.98,SW,226,0.0,0.0,58,0.00,,---,0.00,VWS V13.01,2013-12-09 05:34:00,
2013-12-08 23:39:00,7.7,-4.0,29.98,SW,226,0.0,0.0,58,0.00,,---,0.00,VWS V13.01,2013-12-09 05:39:00,
2013-12-08 23:44:00,7.7,-4.0,29.98,SW,226,0.0,0.0,58,0.00,,---,0.00,VWS V13.01,2013-12-09 05:44:00,
2013-12-08 23:49:00,7.7,-4.0,29.98,SW,226,0.0,0.0,58,0.00,,---,0.00,VWS V13.01,2013-12-09 05:49:00,
2013-12-08 23:54:00,7.7,-4.0,29.98,SW,225,0.0,0.0,58,0.00,,---,0.00,VWS V13.01,2013-12-09 05:54:00,
2013-12-08 23:59:00,7.7,-4.0,29.98,SW,225,3.1,3.1,58,0.00,,---,0.00,VWS V13.01,2013-12-09 05:59:00,